SHT59A EGKK-EGJJ

Flight info

Callsign SHT59A
Flight time 0h 35m
Altitude 20000
Route NOVMA1X NOVMA L620 SAM N63 LELNA LELNA1J
Aircraft A320/M-VGDW/C

Departure

Time 2026-04-15 16:16
Airport London Gatwick Airport (EGKK)

Arrival

Time 2026-04-15 16:51
Airport Jersey Airport (EGJJ)
Time Latitude Longitude Altitude Speed Heading
2026-04-15 15:56 51.15478 -0.17021 205 ft 0 kts 347°
2026-04-15 16:07 51.15467 -0.17017 215 ft 3 kts 347°
2026-04-15 16:08 51.15450 -0.17011 205 ft 3 kts 355°
2026-04-15 16:08 51.15431 -0.17013 205 ft 3 kts 31°
2026-04-15 16:08 51.15418 -0.17034 214 ft 3 kts 66°
2026-04-15 16:08 51.15412 -0.17059 213 ft 1 kts 77°
2026-04-15 16:09 51.15411 -0.17067 209 ft 0 kts 77°
2026-04-15 16:12 51.15414 -0.17045 215 ft 8 kts 77°
2026-04-15 16:12 51.15427 -0.16950 205 ft 9 kts 77°
2026-04-15 16:12 51.15441 -0.16849 205 ft 9 kts 77°
2026-04-15 16:13 51.15444 -0.16746 213 ft 9 kts 119°
2026-04-15 16:13 51.15387 -0.16705 205 ft 10 kts 167°
2026-04-15 16:13 51.15321 -0.16674 205 ft 10 kts 163°
2026-04-15 16:13 51.15299 -0.16666 213 ft 0 kts 167°
2026-04-15 16:14 51.15295 -0.16664 211 ft 3 kts 167°
2026-04-15 16:14 51.15265 -0.16653 209 ft 5 kts 167°
2026-04-15 16:14 51.15224 -0.16639 208 ft 7 kts 167°
2026-04-15 16:15 51.15169 -0.16620 215 ft 9 kts 171°
2026-04-15 16:15 51.15135 -0.16688 209 ft 10 kts 257°
2026-04-15 16:15 51.15091 -0.16988 209 ft 59 kts 257°
2026-04-15 16:15 51.14961 -0.17944 207 ft 115 kts 258°
2026-04-15 16:16 51.14741 -0.19407 247 ft 153 kts 250°
2026-04-15 16:16 51.14488 -0.21066 910 ft 156 kts 253°
2026-04-15 16:16 51.14257 -0.22748 1745 ft 157 kts 252°
2026-04-15 16:16 51.14017 -0.24510 2364 ft 170 kts 253°
2026-04-15 16:17 51.13759 -0.26453 2894 ft 189 kts 253°
2026-04-15 16:17 51.13484 -0.28588 3458 ft 205 kts 254°
2026-04-15 16:17 51.13185 -0.30904 4064 ft 223 kts 254°
2026-04-15 16:17 51.12842 -0.33375 4713 ft 240 kts 253°
2026-04-15 16:18 51.12467 -0.35995 5552 ft 244 kts 253°
2026-04-15 16:18 51.12081 -0.38638 5980 ft 241 kts 253°
2026-04-15 16:18 51.11697 -0.41256 6828 ft 244 kts 253°
2026-04-15 16:18 51.11216 -0.43826 7763 ft 242 kts 243°
2026-04-15 16:19 51.10477 -0.46245 8612 ft 245 kts 241°
2026-04-15 16:19 51.09701 -0.48679 9442 ft 249 kts 241°
2026-04-15 16:19 51.08919 -0.51160 10271 ft 252 kts 241°
2026-04-15 16:19 51.08135 -0.53672 11035 ft 255 kts 241°
2026-04-15 16:20 51.07342 -0.56216 11770 ft 259 kts 242°
2026-04-15 16:20 51.06535 -0.58798 12497 ft 263 kts 242°
2026-04-15 16:20 51.05719 -0.61425 13240 ft 267 kts 243°
2026-04-15 16:20 51.05138 -0.64248 13962 ft 273 kts 255°
2026-04-15 16:21 51.04754 -0.67219 14619 ft 276 kts 255°
2026-04-15 16:21 51.04349 -0.70270 14956 ft 292 kts 255°
2026-04-15 16:21 51.03910 -0.73530 15182 ft 309 kts 255°
2026-04-15 16:21 51.03453 -0.76911 15715 ft 315 kts 255°
2026-04-15 16:22 51.02992 -0.80328 16341 ft 318 kts 255°
2026-04-15 16:22 51.02524 -0.83774 16966 ft 320 kts 255°
2026-04-15 16:22 51.02052 -0.87242 17607 ft 323 kts 255°
2026-04-15 16:22 51.01574 -0.90739 18255 ft 326 kts 255°
2026-04-15 16:23 51.01091 -0.94270 18799 ft 329 kts 255°
2026-04-15 16:23 51.00607 -0.97823 18995 ft 329 kts 255°
2026-04-15 16:23 51.00123 -1.01378 19252 ft 330 kts 255°
2026-04-15 16:23 50.99637 -1.04943 19504 ft 331 kts 255°
2026-04-15 16:24 50.99147 -1.08517 19739 ft 332 kts 255°
2026-04-15 16:24 50.98652 -1.12114 19957 ft 334 kts 255°
2026-04-15 16:24 50.98152 -1.15719 20039 ft 335 kts 255°
2026-04-15 16:24 50.97648 -1.19338 20051 ft 335 kts 255°
2026-04-15 16:25 50.97143 -1.22940 20052 ft 335 kts 255°
2026-04-15 16:25 50.96637 -1.26552 20054 ft 335 kts 255°
2026-04-15 16:25 50.95933 -1.30069 20057 ft 339 kts 244°
2026-04-15 16:25 50.94719 -1.33316 20056 ft 345 kts 232°
2026-04-15 16:26 50.93048 -1.36054 20056 ft 349 kts 220°
2026-04-15 16:26 50.90995 -1.38138 20053 ft 353 kts 210°
2026-04-15 16:26 50.88793 -1.39884 20056 ft 354 kts 210°
2026-04-15 16:26 50.86592 -1.41636 20053 ft 354 kts 210°
2026-04-15 16:27 50.84390 -1.43393 20043 ft 355 kts 210°
2026-04-15 16:27 50.82181 -1.45159 20052 ft 355 kts 210°
2026-04-15 16:27 50.79969 -1.46924 20049 ft 356 kts 210°
2026-04-15 16:27 50.77754 -1.48681 20047 ft 356 kts 210°
2026-04-15 16:28 50.75540 -1.50436 20040 ft 356 kts 210°
2026-04-15 16:28 50.73349 -1.52174 20040 ft 357 kts 210°
2026-04-15 16:28 50.71100 -1.53956 20041 ft 357 kts 210°
2026-04-15 16:28 50.68905 -1.55689 20038 ft 358 kts 210°
2026-04-15 16:29 50.66680 -1.57444 20035 ft 358 kts 210°
2026-04-15 16:29 50.64453 -1.59206 20033 ft 358 kts 210°
2026-04-15 16:29 50.62221 -1.60972 20031 ft 359 kts 210°
2026-04-15 16:29 50.59989 -1.62733 20032 ft 359 kts 210°
2026-04-15 16:30 50.57750 -1.64496 20029 ft 360 kts 210°
2026-04-15 16:30 50.55510 -1.66254 20029 ft 360 kts 210°
2026-04-15 16:30 50.53265 -1.68013 20031 ft 361 kts 210°
2026-04-15 16:30 50.51014 -1.69774 20033 ft 361 kts 210°
2026-04-15 16:31 50.48766 -1.71534 20028 ft 361 kts 210°
2026-04-15 16:31 50.46514 -1.73296 20033 ft 362 kts 210°
2026-04-15 16:31 50.44259 -1.75060 20033 ft 362 kts 210°
2026-04-15 16:31 50.42005 -1.76826 20035 ft 363 kts 210°
2026-04-15 16:32 50.39745 -1.78593 20035 ft 363 kts 210°
2026-04-15 16:32 50.37483 -1.80357 20038 ft 363 kts 210°
2026-04-15 16:32 50.35220 -1.82121 20041 ft 364 kts 210°
2026-04-15 16:32 50.32948 -1.83889 20043 ft 364 kts 210°
2026-04-15 16:33 50.30676 -1.85655 20045 ft 364 kts 210°
2026-04-15 16:33 50.28406 -1.87422 20044 ft 365 kts 210°
2026-04-15 16:33 50.26132 -1.89191 20044 ft 365 kts 210°
2026-04-15 16:33 50.23878 -1.90936 20051 ft 366 kts 210°
2026-04-15 16:34 50.21599 -1.92694 20050 ft 366 kts 210°
2026-04-15 16:34 50.19285 -1.94478 20054 ft 366 kts 210°
2026-04-15 16:34 50.17028 -1.96219 20056 ft 367 kts 210°
2026-04-15 16:34 50.14718 -1.98004 20054 ft 362 kts 210°
2026-04-15 16:35 50.12510 -1.99701 19943 ft 347 kts 210°
2026-04-15 16:35 50.10363 -2.01346 19632 ft 340 kts 210°
2026-04-15 16:35 50.08281 -2.02944 19217 ft 337 kts 210°
2026-04-15 16:35 50.06185 -2.04553 18789 ft 335 kts 210°
2026-04-15 16:36 50.04103 -2.06148 18355 ft 333 kts 210°
2026-04-15 16:36 50.02026 -2.07736 17857 ft 331 kts 210°
2026-04-15 16:36 49.99925 -2.09170 17390 ft 332 kts 202°
2026-04-15 16:36 49.97658 -2.09885 16924 ft 335 kts 189°
2026-04-15 16:37 49.95317 -2.09750 16468 ft 339 kts 175°
2026-04-15 16:37 49.92994 -2.09036 16006 ft 339 kts 173°
2026-04-15 16:37 49.90687 -2.08314 15563 ft 337 kts 174°
2026-04-15 16:37 49.88391 -2.07604 15134 ft 335 kts 174°
2026-04-15 16:38 49.86107 -2.06903 14708 ft 334 kts 174°
2026-04-15 16:38 49.83847 -2.06210 14118 ft 329 kts 174°
2026-04-15 16:38 49.81585 -2.05518 13622 ft 330 kts 174°
2026-04-15 16:38 49.79342 -2.04828 13219 ft 327 kts 174°
2026-04-15 16:39 49.77114 -2.04141 12804 ft 325 kts 173°
2026-04-15 16:39 49.74908 -2.03464 12400 ft 322 kts 173°
2026-04-15 16:39 49.72714 -2.02792 12003 ft 320 kts 173°
2026-04-15 16:39 49.70534 -2.02143 11613 ft 317 kts 176°
2026-04-15 16:40 49.68387 -2.01865 11231 ft 312 kts 180°
2026-04-15 16:40 49.66224 -2.01642 10854 ft 311 kts 179°
2026-04-15 16:40 49.64113 -2.00921 10475 ft 314 kts 163°
2026-04-15 16:40 49.62114 -1.99665 10306 ft 306 kts 161°
2026-04-15 16:41 49.60186 -1.98399 10186 ft 296 kts 161°
2026-04-15 16:41 49.58318 -1.97165 9989 ft 289 kts 161°
2026-04-15 16:41 49.56427 -1.96232 9680 ft 282 kts 173°
2026-04-15 16:41 49.54509 -1.95793 9202 ft 278 kts 176°
2026-04-15 16:42 49.52590 -1.95423 8870 ft 277 kts 176°
2026-04-15 16:42 49.50698 -1.95065 8388 ft 272 kts 176°
2026-04-15 16:42 49.48826 -1.94716 7833 ft 270 kts 176°
2026-04-15 16:42 49.46966 -1.94375 7340 ft 269 kts 177°
2026-04-15 16:43 49.45144 -1.93727 7069 ft 272 kts 158°
2026-04-15 16:43 49.43601 -1.92021 6763 ft 275 kts 142°
2026-04-15 16:43 49.42181 -1.90049 6463 ft 274 kts 143°
2026-04-15 16:43 49.40576 -1.88621 6145 ft 263 kts 169°
2026-04-15 16:44 49.38797 -1.88246 5795 ft 255 kts 179°
2026-04-15 16:44 49.37055 -1.88095 5249 ft 254 kts 181°
2026-04-15 16:44 49.35288 -1.87967 4928 ft 253 kts 181°
2026-04-15 16:44 49.33558 -1.87847 4709 ft 243 kts 180°
2026-04-15 16:45 49.31866 -1.87740 4158 ft 245 kts 180°
2026-04-15 16:45 49.30166 -1.87642 3864 ft 244 kts 181°
2026-04-15 16:45 49.28472 -1.87535 3563 ft 242 kts 181°
2026-04-15 16:45 49.26804 -1.87630 3259 ft 237 kts 194°
2026-04-15 16:46 49.25761 -1.88137 3175 ft 229 kts 206°
2026-04-15 16:46 49.24465 -1.89427 3069 ft 218 kts 223°
2026-04-15 16:46 49.23534 -1.91176 3008 ft 206 kts 238°
2026-04-15 16:46 49.23010 -1.93111 3007 ft 194 kts 253°
2026-04-15 16:47 49.22805 -1.95083 3004 ft 182 kts 259°
2026-04-15 16:47 49.22653 -1.96962 3010 ft 173 kts 258°
2026-04-15 16:47 49.22510 -1.98721 2854 ft 162 kts 258°
2026-04-15 16:47 49.22374 -2.00396 2680 ft 156 kts 258°
2026-04-15 16:48 49.22240 -2.02030 2485 ft 152 kts 257°
2026-04-15 16:48 49.22113 -2.03588 2276 ft 140 kts 257°
2026-04-15 16:48 49.21996 -2.05016 2092 ft 132 kts 257°
2026-04-15 16:48 49.21883 -2.06392 1924 ft 130 kts 257°
2026-04-15 16:49 49.21770 -2.07764 1750 ft 130 kts 257°
2026-04-15 16:49 49.21657 -2.09133 1575 ft 130 kts 256°
2026-04-15 16:49 49.21542 -2.10521 1401 ft 132 kts 258°
2026-04-15 16:49 49.21431 -2.11915 1208 ft 132 kts 257°
2026-04-15 16:50 49.21319 -2.13299 1043 ft 129 kts 257°
2026-04-15 16:50 49.21203 -2.14675 858 ft 131 kts 258°
2026-04-15 16:50 49.21089 -2.16064 669 ft 133 kts 259°
2026-04-15 16:50 49.20977 -2.17437 466 ft 129 kts 261°
2026-04-15 16:51 49.20865 -2.18778 301 ft 127 kts 260°
2026-04-15 16:51 49.20766 -2.19939 281 ft 88 kts 263°
2026-04-15 16:51 49.20711 -2.20570 279 ft 32 kts 264°
2026-04-15 16:51 49.20681 -2.20694 282 ft 9 kts 213°
2026-04-15 16:52 49.20631 -2.20661 280 ft 10 kts 108°
2026-04-15 16:52 49.20624 -2.20538 280 ft 13 kts 101°
2026-04-15 16:52 49.20600 -2.20388 280 ft 16 kts 104°
2026-04-15 16:52 49.20563 -2.20210 280 ft 19 kts 109°
2026-04-15 16:53 49.20527 -2.20038 280 ft 14 kts 105°
2026-04-15 16:53 49.20497 -2.19937 280 ft 7 kts 149°
2026-04-15 16:53 49.20447 -2.19886 280 ft 10 kts 131°
2026-04-15 16:53 49.20440 -2.19769 280 ft 13 kts 83°
2026-04-15 16:54 49.20436 -2.19630 281 ft 8 kts 102°
2026-04-15 16:54 49.20462 -2.19573 281 ft 3 kts 14°
2026-04-15 16:54 49.20478 -2.19567 281 ft 0 kts 14°
2026-04-15 16:55 49.20479 -2.19569 281 ft 0 kts